Location: Newark
(42.9277°N, 71.8621°W)
Time: 18:53:43
(UTC+00:00)

Transit 4A - Pass Details

Date: 20 May 2021
Orbit: 872 x 973 km, 66.8° (Epoch: 15 June)

Event Time Altitude Azimuth Distance (km) Brightness Sun altitude
Rises 03:46:45 0° 336° (NNW) 3,501 12.2 -25.7°
Reaches altitude 10° 03:51:06 10° 6° (N) 2,542 11.1 -25.9°
Maximum altitude 03:53:24 12° 30° (NNE) 2,375 10.6 -26.0°
Drops below altitude 10° 03:55:41 10° 53° (NE) 2,528 10.4 -26.1°
Sets 03:59:58 0° 83° (E) 3,459 10.8 -26.2°
